STAR ONE C3

Last updated on Sat Sep 05 2026 00:03:03 GMT+0000 (Coordinated Universal Time)

1 38991U 12062A 26247.58109181 -.00000256 00000+0 00000+0 0 9997 2 38991 0.0177 117.8177 0002153 54.7479 305.3460 1.00269698 50564
UTC large
Height (km)
Speed (km/s)
/
Latitude / Longitude
Inclination (degrees)
Orbital Period (minutes)
Azimuth
Elevation
Range (km)
Doppler Factor

Next 0 passes for location: London (51.5072 / 0.1276)

No passes found over London.
STAR ONE C3